Time,TemperatureF,DewpointF,PressureIn,WindDirection,WindDirectionDegrees,WindSpeedMPH,WindSpeedGustMPH,Humidity,HourlyPrecipIn,Conditions,Clouds,dailyrainin,SoftwareType,DateUTC
2013-01-04 00:03:00,23.0,15.0,30.01,West,262,0.0,3.0,70,0.00,,,0.00,,2013-01-04 05:03:00,
2013-01-04 00:12:00,23.0,15.0,30.01,West,262,0.0,3.0,70,0.00,,,0.00,,2013-01-04 05:12:00,
2013-01-04 00:22:00,23.0,15.0,29.99,WNW,285,0.0,2.0,72,0.00,,,0.00,,2013-01-04 05:22:00,
2013-01-04 00:33:00,22.0,14.0,29.99,WSW,255,0.0,1.0,71,0.00,,,0.00,,2013-01-04 05:33:00,
2013-01-04 00:42:00,22.0,14.0,29.99,WSW,255,0.0,1.0,71,0.00,,,0.00,,2013-01-04 05:42:00,
2013-01-04 00:53:00,20.0,13.0,29.98,WSW,255,0.0,0.0,74,0.00,,,0.00,,2013-01-04 05:53:00,
2013-01-04 01:02:00,20.0,14.0,29.98,WSW,255,0.0,0.0,76,0.00,,,0.00,,2013-01-04 06:02:00,
2013-01-04 01:12:00,20.0,14.0,29.98,WSW,255,0.0,0.0,76,0.00,,,0.00,,2013-01-04 06:12:00,
2013-01-04 01:22:00,19.0,13.0,29.97,WSW,254,0.0,1.0,78,0.00,,,0.00,,2013-01-04 06:22:00,
2013-01-04 01:33:00,19.0,14.0,29.97,WSW,254,0.0,2.0,79,0.00,,,0.00,,2013-01-04 06:33:00,
2013-01-04 01:42:00,19.0,14.0,29.97,WSW,254,0.0,2.0,79,0.00,,,0.00,,2013-01-04 06:42:00,
2013-01-04 01:52:00,19.0,14.0,29.96,WSW,241,0.0,6.0,81,0.00,,,0.00,,2013-01-04 06:52:00,
2013-01-04 02:02:00,19.0,14.0,29.97,SW,230,1.0,4.0,80,0.00,,,0.00,,2013-01-04 07:02:00,
2013-01-04 02:12:00,19.0,14.0,29.97,SW,230,1.0,4.0,80,0.00,,,0.00,,2013-01-04 07:12:00,
2013-01-04 02:22:00,19.0,14.0,29.97,West,260,2.0,6.0,82,0.00,,,0.00,,2013-01-04 07:22:00,
2013-01-04 02:32:00,19.0,15.0,29.96,West,268,2.0,5.0,83,0.00,,,0.00,,2013-01-04 07:32:00,
2013-01-04 02:42:00,19.0,15.0,29.96,West,268,2.0,5.0,83,0.00,,,0.00,,2013-01-04 07:42:00,
2013-01-04 02:52:00,20.0,15.0,29.97,WNW,299,4.0,10.0,81,0.00,,,0.00,,2013-01-04 07:52:00,
2013-01-04 03:02:00,21.0,16.0,29.96,WNW,302,2.0,11.0,82,0.00,,,0.00,,2013-01-04 08:02:00,
2013-01-04 03:12:00,21.0,16.0,29.96,WNW,302,2.0,11.0,82,0.00,,,0.00,,2013-01-04 08:12:00,
2013-01-04 03:23:00,22.0,16.0,29.97,NW,314,1.0,8.0,79,0.00,,,0.00,,2013-01-04 08:23:00,
2013-01-04 03:32:00,23.0,17.0,29.96,WNW,286,2.0,7.0,79,0.00,,,0.00,,2013-01-04 08:32:00,
2013-01-04 03:42:00,23.0,17.0,29.96,WNW,286,2.0,7.0,79,0.00,,,0.00,,2013-01-04 08:42:00,
2013-01-04 03:53:00,23.0,17.0,29.96,WNW,286,2.0,7.0,79,0.00,,,0.00,,2013-01-04 08:53:00,
2013-01-04 04:02:00,23.0,17.0,29.96,West,280,1.0,8.0,78,0.00,,,0.00,,2013-01-04 09:02:00,